星链-3809 (STARLINK-3809 )

导读

STARLINK-3809是美国太空探索技术公司(SpaceX)星链(Starlink)卫星互联网项目中的一颗卫星,于2022年6月17日发射升空。星链项目旨在构建全球卫星互联网星座,为全球偏远地区等提供低延迟高速互联网服务,该卫星是星链星座组网进程中的一员,服务项目全球覆盖目标。

基本信息
目录编号:
52851
目录名称:
STARLINK-3809
国际标识:
2022-062X
轨道中心:
EARTH
卫星名称:
星链-3809
卫星全名:
星链-3809 (STARLINK-3809 )
卫星状态:
在轨 (已飞行1548 天)
发射日期:
2022-06-17 UTC
国别 :
美国 (US)
星等 :
--
该卫星已列入 空间交会检测服务 Space Conjunction Data Service (SCDS) ,当前飞行风险评估等级: 无高风险
轨道信息
数据来源 国际轨道数据
星历时间: 2026-09-12T01:38:54+0800
14小时前
查看轨道信息
半长轴: 6840.865km
偏心率: 0.0000791
轨道倾角: 53.157°
近地点辐角 80.270°
升交点赤经 254.608°
平近点角 279.839°
近地点: 462.186km
远地点: 463.27km
周期: 93.848分钟
每日圈数: 15.343918
详细信息
固有亮度:
5
最大亮度:
2.5
卫星平台:
Starlink v1.5
覆盖范围:
全球
运营商:
太空探索技术公司
运营商所在国:
美国
制造商(研发单位):
太空探索技术公司
制造商所在国:
美国
使用方式:
暂无
卫星简介
星链(Starlink)计划是由太空探索技术公司(SpaceX)提出的一个巨型低轨卫星互联网星座项目,计划在2019年至2024年间在太空搭建由约1.2万颗卫星组成的“星链”网络,其中1584颗将部署在地球上空550千米处的近地轨道,并从2020年开始工作。该卫星仍在工作。
2D轨道图
3D轨道图
轨道高度分析图
轨道倾角分析图
轨道综合分析图
查看轨道综合分析图
交会数据列表
事件ID 空间交会对象 最接近时刻(TCA) 交会距离 交会风险概率(CRP) 交会风险指数(CRI) 操作
CDM_260911-035205-285106-574321
2026-09-11T
03:52:25+0000
0.592 km
远距离
8.303393E-5 中风险 0.73
CDM_260909-230103-122205-285122
2026-09-09T
23:01:41+0000
1.019 km
极远距离
2.136334E-5 中风险 0.62
CDM_260912-122105-285106-044621
2026-09-12T
12:21:23+0000
1.736 km
极远距离
3.72098E-6 低风险 0.46
CDM_260914-174505-285106-624521
2026-09-14T
17:45:33+0000
1.912 km
极远距离
2.568025E-6 低风险 0.43
与全量物体交会距离演化趋势
与全量物体交会风险概率演化趋势